DateTimeUTC,F1_A11,F1_S11,BsB_S11,BsG_S11,BsR_S11,BbsB_S11,BbsG_S11,BbsR_S11,BaB_A11,BaG_A11,BaR_A11,Tu_S11,T_S11,Uu_S11,U_S11,P_S11,T1_A11
2021-09-18T07:00:00Z,00000200,21000000,,,,,,,0000.08,0000.28,0000.18,18.2,25.4,,00.0,0655.6,31.1
2021-09-18T07:01:00Z,00000200,21000000,,,,,,,0000.13,-000.08,-000.10,18.2,25.4,,00.0,0655.6,31.0
2021-09-18T07:02:00Z,00000200,21000000,,,,,,,0000.09,0000.26,0000.19,18.2,25.5,,00.0,0655.6,31.0
2021-09-18T07:03:00Z,00000200,61000000,,,,,,,0001.29,0000.82,0000.66,18.2,25.5,,00.0,0655.6,31.0
2021-09-18T07:04:00Z,00000200,41000000,0001.75,0001.38,0000.41,0000.51,0000.52,-000.07,0000.35,0000.44,0000.24,18.3,25.2,,00.0,0656.5,31.0
2021-09-18T07:05:00Z,00000200,01000000,0001.73,0001.18,0000.77,0000.04,0000.55,0000.17,0000.77,0000.87,0000.63,18.3,25.2,,00.0,0656.5,31.0
2021-09-18T07:06:00Z,00000200,01000000,0001.49,0001.47,0000.64,0000.40,0000.20,0000.19,0000.60,0000.27,0000.42,18.2,25.1,,00.0,0656.5,31.0
2021-09-18T07:07:00Z,00000200,01000000,0000.90,0001.19,0000.80,0000.55,0000.45,0000.01,0000.44,0000.63,0000.44,18.1,25.1,,00.0,0656.5,31.0
2021-09-18T07:08:00Z,00000200,01000000,0001.12,0001.12,0000.15,0000.68,0000.15,-000.02,0000.60,0000.38,0000.06,18.1,25.0,,00.0,0656.5,30.9
2021-09-18T07:09:00Z,00000200,01000000,0001.69,0001.65,0000.83,0000.71,0000.33,0000.08,0000.47,0000.74,0000.60,18.1,25.0,,00.0,0656.5,30.9
2021-09-18T07:10:00Z,00000200,01000000,0001.46,0001.01,0000.74,0000.51,0000.40,0000.05,0000.74,0000.35,0000.42,18.1,25.0,,00.0,0656.5,31.0
2021-09-18T07:11:00Z,00000200,01000000,0002.58,0001.29,0000.64,0000.91,0000.15,0000.29,0000.14,0000.51,0000.17,18.2,25.0,,00.0,0656.5,31.0
2021-09-18T07:12:00Z,00000200,01000000,0002.21,0001.38,0000.94,0000.77,0000.13,0000.46,0000.65,0000.45,0000.61,18.3,25.0,,00.0,0656.5,31.0
2021-09-18T07:13:00Z,00000200,01000000,0002.03,0001.56,0000.75,0000.67,0000.19,0000.18,0000.55,0000.40,0000.48,18.4,25.1,,00.0,0656.5,31.0
2021-09-18T07:14:00Z,00000200,01000000,0001.76,0001.24,0000.59,0000.27,0000.20,0000.29,0000.89,0000.84,0000.13,18.5,25.1,,00.0,0656.5,31.0
2021-09-18T07:15:00Z,00000200,01000000,0001.38,0001.20,0000.66,0000.53,0000.12,-000.08,-000.00,0000.34,0000.64,18.6,25.2,,00.0,0656.5,31.1
2021-09-18T07:16:00Z,00000200,01000000,0001.98,0001.39,0000.60,0000.54,0000.60,-000.11,0000.57,0000.38,0000.29,18.6,25.2,,00.0,0656.5,31.1
2021-09-18T07:17:00Z,00000200,01000000,0001.39,0001.43,0000.63,0000.48,0000.12,0000.14,0000.81,0000.40,0000.40,18.7,25.2,,00.0,0656.6,31.0
2021-09-18T07:18:00Z,00000200,01000000,0002.25,0001.67,0000.72,-000.06,0000.22,0000.01,0000.32,0000.31,-000.00,18.6,25.2,,00.0,0656.5,31.0
2021-09-18T07:19:00Z,00000200,01000000,0001.63,0001.45,0000.61,0000.19,0000.23,0000.32,0000.27,0000.65,0000.42,18.5,25.2,,00.0,0656.5,31.0
2021-09-18T07:20:00Z,00000200,01000000,0002.47,0001.54,0000.70,0000.28,0000.31,0000.28,0000.37,0000.10,-000.09,18.5,25.1,,00.0,0656.5,31.0
2021-09-18T07:21:00Z,00000200,01000000,0001.36,0001.30,0000.53,0000.48,0000.33,-000.04,0000.20,0000.17,0000.19,18.4,25.1,,00.0,0656.5,31.0
2021-09-18T07:22:00Z,00000200,01000000,0001.51,0001.14,0000.65,-000.18,0000.03,-000.22,0000.36,0000.22,0000.55,18.3,25.1,,00.0,0656.5,31.0
2021-09-18T07:23:00Z,00000200,01000000,0002.29,0001.22,0000.45,0000.70,0000.11,0000.28,0000.63,0000.13,0000.46,18.2,25.0,,00.0,0656.5,31.0
2021-09-18T07:24:00Z,00000200,01000000,0001.00,0000.83,0000.48,0000.35,0000.07,0000.06,-000.10,0000.29,-000.14,18.2,25.0,,00.0,0656.5,31.0
2021-09-18T07:25:00Z,00000200,01000000,-000.30,0000.06,-000.11,0000.21,0000.11,-000.29,-000.00,-000.09,-000.27,18.2,25.0,,00.0,0656.5,31.0
2021-09-18T07:26:00Z,00000200,01000000,0001.21,0001.32,0000.64,0000.12,0000.37,0000.04,0000.11,0000.12,0000.38,18.3,25.0,,00.0,0656.6,31.0
2021-09-18T07:27:00Z,00000200,01000000,0001.27,0000.91,0000.58,0000.80,-000.01,-000.35,0000.69,0000.54,0000.07,18.4,25.0,,00.0,0656.6,31.0
2021-09-18T07:28:00Z,00000200,01000000,0002.05,0001.49,0001.09,0000.47,0000.24,0000.33,-000.34,-000.25,0000.13,18.5,25.1,,00.0,0656.6,31.0
2021-09-18T07:29:00Z,00000200,01000000,0001.62,0001.02,0000.35,0001.10,0000.33,0000.02,0000.42,0000.45,0000.47,18.6,25.1,,00.0,0656.6,31.1
2021-09-18T07:30:00Z,00000200,01000000,0002.64,0000.84,0000.77,0000.36,0000.13,0000.35,-000.09,-000.18,-000.37,18.7,25.2,,00.0,0656.6,31.1
2021-09-18T07:31:00Z,00000200,01000000,0001.42,0001.28,0000.68,-000.13,0000.43,0000.15,-000.30,0000.30,0000.18,18.7,25.2,,00.0,0656.6,31.1
2021-09-18T07:32:00Z,00000200,01000000,0001.65,0001.05,0000.37,-000.19,0000.46,0000.51,0000.04,-000.33,-000.28,18.7,25.2,,00.0,0656.6,31.0
2021-09-18T07:33:00Z,00000200,01000000,0001.55,0000.68,0000.52,0000.57,0000.34,0000.20,0000.31,0000.34,0000.11,18.6,25.2,,00.0,0656.6,31.0
2021-09-18T07:34:00Z,00000200,01000000,0002.13,0001.05,0000.44,0000.31,-000.01,0000.14,0000.43,0000.06,0000.30,18.5,25.2,,00.0,0656.6,31.0
2021-09-18T07:35:00Z,00000200,01000000,0000.33,0000.01,-000.08,0000.08,-000.17,0000.05,-000.61,-000.25,-000.34,18.4,25.1,,00.0,0656.6,31.0
2021-09-18T07:36:00Z,00000200,01000000,0000.28,0000.01,-000.11,-000.14,0000.21,0000.15,0000.16,-000.07,0000.04,18.3,25.1,,00.0,0656.6,31.0
2021-09-18T07:37:00Z,00000200,01000000,-000.68,-000.00,-000.11,0000.23,-000.19,0000.18,-000.09,-000.36,-000.22,18.3,25.0,,00.0,0656.6,31.0
2021-09-18T07:38:00Z,00000200,01000000,0000.22,-000.12,-000.16,-000.09,0000.16,0000.03,-000.09,0000.14,0000.10,18.2,25.0,,00.0,0656.6,31.0
2021-09-18T07:39:00Z,00000200,01000000,0000.09,-000.02,-000.10,0000.26,0000.05,-000.23,0000.29,0000.38,0000.36,18.2,25.0,,00.0,0656.6,31.0
2021-09-18T07:40:00Z,00000200,01000000,-000.41,0000.14,0000.02,0000.30,-000.07,-000.04,0000.62,0000.26,0000.22,18.2,25.0,,00.0,0656.6,31.0
2021-09-18T07:41:00Z,00000200,01000000,0001.47,0001.25,0000.51,0000.58,0000.08,-000.04,0000.38,0000.59,0000.37,18.3,25.0,,00.0,0656.6,31.0
2021-09-18T07:42:00Z,00000200,01000000,0002.51,0001.40,0000.65,0000.42,-000.06,-000.18,0000.58,0001.08,0000.67,18.4,25.0,,00.0,0656.6,31.0
2021-09-18T07:43:00Z,00000200,01000000,0002.01,0001.15,0000.46,0000.63,0000.03,-000.26,0000.54,0000.24,0000.54,18.5,25.1,,00.0,0656.6,31.0
2021-09-18T07:44:00Z,00000200,01000000,0002.05,0001.52,0000.68,-000.24,0000.16,0000.31,0001.02,0000.55,0000.41,18.6,25.1,,00.0,0656.6,31.1
2021-09-18T07:45:00Z,00000200,01000000,0002.40,0000.94,0000.89,0000.03,0000.10,0000.11,0000.59,0000.83,0000.33,18.7,25.2,,00.0,0656.6,31.1
2021-09-18T07:46:00Z,00000200,01000000,0001.60,0001.07,0000.80,0000.54,0000.06,0000.04,0000.80,0000.70,0000.66,18.7,25.2,,00.0,0656.6,31.1
2021-09-18T07:47:00Z,00000200,01000000,0001.90,0001.67,0000.44,0000.51,0000.12,0000.00,0000.23,0000.53,0000.40,18.7,25.2,,00.0,0656.6,31.1
2021-09-18T07:48:00Z,00000200,01000000,0002.49,0001.62,0000.93,0000.55,0000.32,0000.38,0000.45,0000.54,0000.28,18.7,25.2,,00.0,0656.6,31.0
2021-09-18T07:49:00Z,00000200,01000000,0002.54,0001.24,0000.97,0000.16,0000.20,0000.37,0000.68,0000.26,0000.26,18.6,25.2,,00.0,0656.6,31.0
2021-09-18T07:50:00Z,00000200,01000000,0003.06,0001.66,0000.75,0000.63,0000.41,0000.46,0000.50,0000.62,0000.08,18.6,25.2,,00.0,0656.6,31.0
2021-09-18T07:51:00Z,00000200,01000000,0002.01,0001.50,0000.76,0000.52,0000.15,0000.04,0000.22,0000.02,0000.45,18.5,25.1,,00.0,0656.6,31.0
2021-09-18T07:52:00Z,00000200,01000000,0002.72,0001.20,0000.49,0001.09,0000.26,-000.13,0000.75,0000.35,0000.68,18.4,25.1,,00.0,0656.6,31.0
2021-09-18T07:53:00Z,00000200,01000000,0001.95,0001.12,0000.74,0000.41,0000.19,-000.04,0000.32,0000.39,-000.08,18.3,25.0,,00.0,0656.6,31.0
2021-09-18T07:54:00Z,00000200,01000000,0001.31,0001.57,0000.82,0000.23,0000.18,-000.05,0000.36,0000.29,0000.44,18.3,25.0,,00.0,0656.6,31.0
2021-09-18T07:55:00Z,00000200,01000000,0002.52,0001.30,0000.75,0000.29,0000.05,-000.11,0000.57,0000.75,0000.42,18.4,25.0,,00.0,0656.6,31.0
2021-09-18T07:56:00Z,00000200,01000000,0002.14,0001.36,0000.65,0000.03,0000.15,0000.05,0000.37,0000.64,0000.43,18.4,25.1,,00.0,0656.5,31.0
2021-09-18T07:57:00Z,00000200,41000000,,,,,,,-000.54,-000.74,-000.47,18.5,25.1,,00.0,0656.5,31.0
2021-09-18T07:58:00Z,00000200,61000000,,,,,,,0000.55,0000.61,0000.18,18.2,25.3,,00.0,0655.6,31.0
2021-09-18T07:59:00Z,00000200,21000000,,,,,,,0000.13,0000.03,0000.47,18.2,25.4,,00.0,0655.6,31.1
